EST,Max TemperatureF,Mean TemperatureF,Min TemperatureF,Max Dew PointF,MeanDew PointF,Min DewpointF,Max Humidity, Mean Humidity, Min Humidity, Max Sea Level PressureIn, Mean Sea Level PressureIn, Min Sea Level PressureIn, Max VisibilityMiles, Mean VisibilityMiles, Min VisibilityMiles, Max Wind SpeedMPH, Mean Wind SpeedMPH, Max Gust SpeedMPH,PrecipitationIn, CloudCover, Events, WindDirDegrees
2014-1-1,50,38,25,27,21,16,91,55,29,30.30,30.20,30.04,10,10,10,7,2,,0.00,0,,195
2014-1-2,39,27,14,39,26,11,100,79,47,30.11,29.87,29.69,10,7,1,16,5,31,0.00,7,Snow,267
2014-1-3,20,14,9,11,7,4,84,71,55,30.43,30.34,30.12,10,9,2,12,6,18,0.00,4,Snow,327
2014-1-4,47,29,11,20,12,5,90,53,20,30.26,30.18,30.10,10,10,10,12,3,,0.00,0,,182
2014-1-5,58,46,33,49,35,21,93,66,51,30.09,29.85,29.52,10,10,4,30,5,45,0.00,4,Rain,185
2014-1-6,41,20,-1,37,6,-11,98,76,56,30.32,30.06,29.61,10,6,0,22,13,34,0.00,7,Rain-Snow,285
2014-1-7,12,4,-4,1,-6,-13,80,64,51,30.50,30.40,30.33,10,10,2,12,7,20,0.00,2,Snow,244
2014-1-8,34,20,5,18,9,1,85,60,43,30.49,30.43,30.39,10,10,7,8,2,,0.00,1,,205
2014-1-9,43,34,25,32,23,18,85,64,43,30.50,30.41,30.30,10,10,10,7,1,,0.00,6,,113
2014-1-10,58,46,35,50,42,31,99,90,73,30.28,30.13,29.87,10,9,1,14,4,21,0.00,6,,115
2014-1-11,59,50,40,54,45,30,99,77,44,29.86,29.68,29.54,10,9,2,21,10,36,0.00,6,Rain,238
2014-1-12,50,44,37,33,31,26,81,64,42,30.10,30.01,29.86,10,10,10,13,7,28,0.00,4,,228
2014-1-13,53,46,40,45,35,27,95,69,45,30.02,29.90,29.79,10,10,5,16,7,24,0.00,4,Rain,186
2014-1-14,51,46,42,45,37,28,99,73,44,29.89,29.84,29.77,10,9,3,12,5,17,0.00,5,Rain,239
2014-1-15,43,34,24,34,23,15,97,69,52,30.07,30.00,29.89,10,10,3,12,6,17,0.00,5,Snow,293
2014-1-16,37,29,21,24,17,12,85,60,36,30.03,29.93,29.82,10,10,10,13,4,21,0.00,5,,210
2014-1-17,43,32,19,32,24,10,96,76,53,30.05,29.88,29.79,10,9,2,16,6,25,0.00,7,Snow,243
2014-1-18,32,24,15,20,13,6,73,64,56,30.07,29.97,29.80,10,10,7,12,7,21,0.00,7,Snow,232
2014-1-19,42,38,33,30,23,16,76,57,44,29.96,29.88,29.78,10,10,10,16,8,24,0.00,4,Snow,249
2014-1-20,53,44,35,28,25,21,73,47,36,29.88,29.84,29.81,10,10,10,15,9,21,0.00,0,,270
2014-1-21,34,22,11,31,22,6,99,88,77,30.06,29.84,29.69,10,4,0,13,6,21,0.00,7,Snow,357
2014-1-22,17,9,1,9,2,-3,90,70,51,30.13,30.07,30.00,10,9,1,10,4,17,0.00,5,Snow,278
2014-1-23,19,11,3,14,2,-6,86,64,45,30.55,30.33,30.08,10,9,1,13,8,22,0.00,5,Snow,288
2014-1-24,21,10,0,2,-2,-6,82,58,38,30.60,30.38,29.96,10,10,10,13,6,18,0.00,0,,221
2014-1-25,32,26,19,25,10,-5,91,55,24,29.93,29.73,29.59,10,8,0,22,12,32,0.00,6,Snow,250
2014-1-26,50,32,15,30,15,-1,57,47,36,29.93,29.75,29.63,10,10,10,18,6,31,0.00,3,,221
2014-1-27,48,30,11,32,11,-4,84,51,37,30.32,30.01,29.67,10,10,1,17,9,26,0.00,3,,302
2014-1-28,11,8,4,0,-3,-6,73,60,49,30.37,30.31,30.26,10,10,7,8,4,,0.00,4,,14
2014-1-29,21,11,1,3,-2,-6,83,58,33,30.37,30.31,30.27,10,10,7,7,1,,0.00,0,,243
2014-1-30,39,24,8,7,3,0,75,44,22,30.31,30.17,30.02,10,10,10,10,4,17,0.00,0,,181
2014-1-31,44,38,32,22,11,4,54,34,26,30.18,30.12,30.05,10,10,10,8,3,,0.00,4,,214